Location: Cronhütte
(48.9135°N, 9.6869°E)
Time: 21:27:50
(UTC+00:00)

CZ-2D R/B - Pass Details

Date: 23 May 2024
Orbit: 791 x 843 km, 98.8° (Epoch: 14 June)

Event Time Altitude Azimuth Distance (km) Brightness Sun altitude
Rises 00:10:37 0° 26° (NNE) 3,412 6.8 -19.5°
Reaches altitude 10° 00:13:38 10° 42° (NE) 2,468 5.5 -19.4°
Maximum altitude 00:17:40 21° 90° (E) 1,815 4.1 -19.2°
Enters shadow 00:21:25 11° 136° (SE) 2,376 4.2 -19.0°
